Vorticity
10 9 7 6 6 6 5 5 8 13 18 22 23 19 12 13 19 20 19 20 23 28 34 39 39 33 22 13 12 15 18 21 26 32 34 32 24 16 12 12 15 16 9 4 8 7 6 11 16 15 10 7 7 9 9 9 9 6 2 1 2 3 3
11 10 9 8 7 7 6 5 5 7 9 14 21 25 19 12 14 19 18 16 18 21 26 32 39 43 40 28 17 12 13 17 20 23 26 30 32 28 22 16 14 16 12 4 4 10 9 7 11 17 17 13 8 8 9 9 8 9 9 6 5 4 4
12 10 9 9 8 7 7 6 6 6 6 6 9 19 25 19 13 16 19 17 15 16 20 25 29 37 43 42 34 22 15 13 15 20 21 22 25 28 29 27 22 18 16 9 2 2 7 8 7 11 16 20 16 9 9 11 9 7 8 9 7 6 5
14 11 9 9 9 8 7 6 7 7 7 7 6 7 16 23 20 15 16 18 15 12 15 20 24 29 35 40 41 36 28 20 16 16 19 20 21 22 23 27 30 28 23 19 11 4 2 4 5 6 8 15 21 17 11 10 12 10 9 8 8 7 6
17 14 11 9 8 8 8 6 6 7 7 8 9 7 7 15 21 20 17 16 16 14 12 14 18 24 29 33 36 36 34 30 24 20 19 19 20 22 23 23 26 31 32 29 24 17 10 7 6 6 4 5 13 19 17 13 12 12 12 10 9 8 6
18 17 13 9 9 8 8 7 5 5 6 6 9 10 8 7 13 19 21 18 15 15 14 12 12 15 21 26 30 32 32 32 30 26 23 22 20 21 23 24 24 27 30 33 33 29 23 17 13 12 11 7 6 10 15 16 13 12 13 13 11 10 8
19 20 16 11 9 8 7 8 7 4 4 4 6 8 10 9 8 11 18 21 18 15 15 15 13 11 12 15 20 25 27 28 29 29 27 25 24 22 22 23 24 25 26 28 32 33 31 28 23 19 18 18 15 11 10 13 14 12 12 13 14 13 13
18 20 20 16 11 9 7 7 8 6 3 2 3 4 6 9 10 8 10 17 21 19 15 14 16 16 13 11 12 15 19 20 21 23 24 24 23 22 22 21 21 22 23 24 26 29 31 32 30 26 22 22 25 24 19 16 16 13 9 9 12 13 13
18 19 20 21 17 11 7 6 8 8 4 1 1 3 3 4 8 10 9 11 16 21 20 16 14 15 16 15 12 10 12 14 15 14 15 16 16 16 17 17 17 17 18 19 20 22 25 28 30 30 26 23 24 28 30 27 26 24 16 9 10 11 10
18 19 20 23 22 16 9 5 6 8 7 4 1 2 2 2 3 6 9 10 11 15 19 21 19 15 14 15 16 14 12 10 10 10 10 11 12 13 14 14 15 16 16 17 18 19 20 23 26 28 28 25 22 22 25 26 27 30 27 17 12 11 10
17 19 21 22 23 21 14 7 5 7 8 5 3 2 3 3 3 2 4 7 10 11 13 17 20 20 17 15 14 14 15 14 12 11 10 11 11 13 14 15 16 17 18 18 18 19 20 22 25 27 28 27 25 21 18 18 19 24 28 25 18 12 9
16 18 21 23 23 22 20 13 8 7 8 7 5 3 2 3 4 3 2 3 5 9 10 11 14 17 19 20 17 14 12 13 13 13 13 13 14 14 15 17 17 16 16 17 18 19 21 23 26 28 30 30 28 25 21 17 16 19 24 29 30 25 17
15 17 19 22 23 22 22 19 15 9 6 7 7 5 2 1 2 4 4 3 2 4 7 9 11 12 13 16 19 19 17 14 12 11 11 11 13 14 15 16 16 15 15 16 17 18 21 23 25 28 33 36 34 30 26 22 18 17 19 24 30 34 32
14 16 19 21 22 22 21 21 22 17 9 6 6 6 4 1 -0 1 2 3 3 2 2 4 8 10 11 11 13 15 18 19 18 15 12 10 10 12 13 14 13 13 14 15 15 15 16 18 20 23 29 37 41 40 37 32 27 23 20 19 21 26 33
12 14 18 21 22 22 20 21 25 24 16 10 6 5 6 4 1 -1 -1 1 2 2 2 1 2 6 8 9 11 11 11 14 17 19 18 15 10 9 11 12 11 11 12 14 16 15 13 13 16 17 21 30 38 43 44 40 36 33 28 25 22 22 27
11 12 15 19 22 22 19 21 27 26 22 18 11 6 5 4 3 1 -0 -0 0 1 1 1 0 2 4 6 10 11 10 10 12 15 18 18 16 11 8 8 9 10 11 13 15 14 12 10 11 13 15 21 29 38 45 44 40 39 37 35 32 28 26
10 10 13 17 21 21 17 20 27 28 25 22 18 13 10 6 4 2 1 0 0 0 1 1 0 0 2 6 8 7 8 10 11 14 17 17 18 16 10 6 7 9 10 11 12 13 12 11 11 10 10 13 18 27 37 44 45 43 42 40 38 35 33
10 9 11 14 19 20 15 17 26 29 25 23 21 18 16 13 9 6 3 2 2 2 1 2 2 1 1 5 7 6 7 8 11 17 21 22 21 20 14 8 6 6 8 10 10 10 10 10 10 10 9 9 10 13 20 32 41 42 42 42 41 40 40
11 9 10 12 16 18 15 15 23 29 27 24 22 19 18 19 18 15 13 10 8 7 5 4 4 5 4 5 7 9 8 6 10 19 27 31 31 27 19 12 7 4 6 9 9 8 8 8 8 9 9 9 9 7 8 14 21 28 37 43 44 44 43
11 9 10 11 13 16 16 14 19 26 28 27 24 21 18 18 18 19 19 18 16 15 13 12 10 9 8 8 10 12 8 4 10 21 27 33 39 35 25 17 11 5 5 7 8 7 7 7 7 8 9 10 11 9 8 8 9 12 20 29 35 38 43
11 10 10 11 12 14 16 15 16 21 27 28 25 22 20 18 17 17 17 17 17 18 17 18 17 15 13 12 13 12 7 3 10 21 24 26 32 35 30 23 16 9 6 6 6 7 7 6 6 7 8 9 12 12 12 11 11 9 8 12 17 22 30
11 10 9 10 12 12 14 16 16 17 23 27 26 23 20 18 16 16 16 14 13 15 16 17 18 17 16 15 14 11 6 2 8 20 24 21 21 25 29 27 20 13 9 8 8 8 8 7 6 7 7 8 10 12 13 13 14 13 10 8 9 11 14
11 11 9 9 11 12 13 15 16 17 20 25 28 26 21 17 15 14 15 13 11 12 13 14 15 15 16 17 15 11 6 2 5 15 23 22 17 17 22 25 22 17 12 11 11 10 10 9 8 7 7 7 9 11 12 13 13 14 13 10 9 10 10
11 11 10 9 10 12 13 14 15 17 20 24 28 27 21 16 14 14 14 12 11 10 10 11 11 13 16 17 15 11 6 3 4 9 17 21 20 18 18 20 20 19 15 13 13 13 13 12 10 9 8 7 8 9 9 9 9 11 12 12 11 11 11
11 10 10 9 9 10 13 13 13 15 20 24 27 28 24 16 13 13 14 12 10 9 8 9 9 10 14 17 16 11 6 3 4 6 9 15 19 19 19 19 20 20 19 18 17 16 15 15 13 12 9 7 7 8 8 8 9 11 12 13 13 13 12
11 10 9 9 9 9 11 13 12 13 18 23 26 28 27 20 13 12 14 12 10 8 7 7 8 9 12 16 17 14 7 3 4 5 6 10 14 16 16 17 18 20 21 21 21 19 18 18 16 14 12 9 10 11 11 11 11 11 11 13 13 13 13
11 10 10 10 10 9 10 12 12 12 15 20 24 29 30 24 15 12 14 14 12 9 7 7 7 8 10 13 16 16 11 5 3 4 5 8 11 13 14 14 15 17 19 21 22 20 19 19 19 18 16 15 15 15 13 11 11 11 12 13 13 14 15
11 10 9 10 10 9 9 11 12 13 14 17 21 27 30 28 21 14 12 14 14 13 11 10 9 8 8 11 14 16 14 8 4 4 5 5 7 9 11 12 13 14 16 18 21 21 20 19 19 19 18 17 16 15 14 14 14 14 14 14 14 15 15
11 10 9 10 10 10 9 9 11 13 14 15 19 24 28 31 27 18 11 11 14 16 16 14 12 9 9 11 13 15 15 12 7 4 4 5 6 7 8 9 11 12 13 15 18 20 21 20 18 16 15 14 13 13 13 14 14 14 13 12 13 14 14
10 10 9 9 10 10 10 9 9 11 14 15 18 22 27 33 30 19 10 9 11 14 16 17 15 12 11 11 12 13 15 15 11 6 5 6 7 6 5 6 7 9 11 13 14 15 18 20 20 18 15 12 11 11 13 15 15 14 12 9 9 10 10
9 10 9 9 10 11 10 9 8 9 11 14 17 20 26 33 30 20 15 13 9 9 12 15 17 16 13 12 13 13 14 16 14 10 6 5 7 7 6 5 5 6 8 11 12 13 14 15 18 19 19 16 13 11 11 13 15 15 12 10 9 8 7
9 9 9 9 10 11 11 10 9 8 9 11 15 18 23 28 26 23 25 22 12 8 9 11 14 17 17 14 13 13 14 16 16 13 8 6 6 7 7 6 5 5 5 7 9 12 14 14 14 16 17 19 19 17 14 12 12 13 13 12 11 10 9
9 9 9 9 9 11 12 11 10 9 8 10 12 15 19 23 23 23 27 26 18 11 9 8 10 15 18 17 14 13 13 15 17 16 11 7 6 7 7 7 6 5 5 5 5 7 9 12 14 15 15 15 17 18 19 18 15 14 13 12 12 12 12
8 8 9 9 8 9 11 11 10 9 8 8 10 12 15 18 20 21 23 25 21 15 10 7 9 14 18 19 16 13 12 14 17 18 14 8 6 7 8 8 7 6 6 5 5 5 6 6 9 13 15 16 15 14 15 18 19 18 17 17 15 14 14
9 8 8 9 8 9 11 12 11 10 8 8 10 11 12 14 17 18 20 22 21 17 12 9 11 15 18 19 18 14 12 12 15 19 17 11 6 6 8 9 8 8 7 6 5 6 7 7 6 7 11 14 17 16 15 14 14 15 16 17 17 17 17
9 9 8 8 8 9 11 12 12 11 9 8 9 10 11 13 15 17 19 20 21 19 15 13 15 17 19 19 18 15 12 10 13 18 20 14 8 5 6 7 8 9 9 9 7 7 7 7 6 6 7 9 12 15 17 16 14 13 13 13 13 14 14
Height
5361 5359 5356 5354 5352 5350 5347 5344 5342 5339 5336 5334 5332 5330 5328 5326 5325 5324 5323 5323 5322 5322 5322 5322 5322 5324 5326 5329 5333 5336 5339 5343 5347 5352 5357 5363 5370 5375 5381 5386 5391 5401 5411 5413 5414 5420 5425 5426 5428 5432 5438 5445 5450 5454 5459 5465 5471 5476 5481 5487 5493 5498 5502
5358 5355 5353 5351 5348 5346 5344 5341 5339 5336 5333 5331 5328 5326 5324 5323 5321 5319 5318 5318 5317 5316 5316 5315 5316 5316 5318 5321 5325 5328 5331 5335 5338 5343 5348 5352 5357 5363 5368 5373 5378 5387 5396 5401 5403 5408 5412 5413 5416 5420 5425 5430 5435 5441 5445 5451 5458 5463 5468 5474 5480 5485 5491
5353 5351 5349 5347 5345 5343 5340 5338 5336 5333 5331 5328 5325 5323 5320 5319 5317 5315 5314 5313 5312 5312 5311 5310 5310 5310 5311 5314 5317 5321 5324 5327 5330 5334 5339 5343 5347 5352 5356 5360 5365 5373 5381 5388 5392 5396 5400 5402 5404 5409 5414 5416 5421 5428 5432 5437 5445 5450 5455 5460 5466 5473 5479
5349 5347 5345 5343 5341 5339 5337 5334 5332 5330 5328 5325 5323 5320 5318 5315 5314 5312 5310 5309 5308 5308 5307 5306 5306 5306 5307 5308 5311 5314 5317 5319 5323 5326 5330 5334 5338 5342 5346 5349 5354 5360 5367 5373 5379 5385 5389 5391 5393 5398 5403 5404 5407 5414 5420 5424 5431 5436 5440 5447 5453 5459 5466
5345 5343 5341 5339 5337 5335 5333 5331 5329 5327 5325 5323 5320 5318 5315 5313 5311 5309 5307 5306 5305 5304 5304 5303 5303 5303 5303 5304 5306 5308 5310 5313 5316 5319 5323 5327 5330 5333 5337 5341 5345 5350 5355 5360 5366 5373 5376 5378 5381 5386 5392 5393 5395 5401 5406 5411 5417 5422 5427 5433 5440 5446 5453
5340 5338 5336 5335 5333 5331 5329 5327 5325 5324 5322 5320 5318 5315 5313 5311 5308 5306 5304 5303 5302 5301 5300 5300 5300 5300 5300 5301 5302 5303 5305 5308 5310 5314 5317 5320 5323 5326 5329 5333 5337 5340 5344 5349 5354 5360 5363 5366 5370 5374 5379 5381 5383 5387 5392 5396 5402 5409 5414 5420 5427 5433 5440
5336 5333 5331 5330 5328 5327 5325 5323 5322 5320 5318 5316 5315 5313 5311 5308 5306 5304 5302 5300 5299 5298 5298 5297 5297 5298 5298 5298 5299 5300 5302 5304 5306 5308 5312 5314 5317 5319 5322 5326 5329 5332 5335 5339 5343 5347 5351 5355 5358 5362 5366 5368 5369 5372 5377 5382 5388 5395 5402 5408 5414 5420 5427
5331 5329 5326 5325 5323 5322 5321 5319 5318 5316 5315 5313 5311 5310 5308 5306 5304 5302 5300 5298 5296 5295 5295 5294 5294 5295 5295 5295 5296 5297 5298 5300 5302 5304 5306 5308 5310 5313 5316 5319 5322 5324 5327 5330 5333 5337 5340 5343 5346 5351 5356 5357 5356 5358 5366 5371 5374 5380 5388 5393 5397 5405 5412
5326 5324 5321 5320 5318 5317 5316 5314 5313 5312 5311 5310 5308 5307 5305 5303 5301 5299 5298 5296 5294 5293 5292 5291 5291 5292 5292 5293 5293 5294 5295 5297 5298 5300 5301 5303 5305 5308 5310 5313 5315 5317 5320 5322 5325 5328 5330 5332 5336 5341 5344 5345 5345 5347 5354 5357 5357 5362 5372 5377 5381 5389 5398
5322 5319 5316 5315 5313 5311 5310 5309 5308 5308 5307 5306 5304 5303 5302 5300 5299 5297 5296 5294 5292 5291 5290 5289 5288 5288 5289 5289 5290 5291 5292 5293 5294 5296 5297 5299 5301 5303 5305 5307 5309 5311 5313 5315 5317 5320 5320 5323 5327 5330 5331 5333 5335 5336 5338 5340 5340 5345 5356 5362 5365 5373 5384
5317 5314 5312 5310 5308 5306 5304 5304 5303 5303 5302 5301 5300 5300 5298 5297 5296 5295 5293 5292 5290 5289 5288 5286 5285 5285 5285 5286 5286 5287 5288 5289 5290 5292 5293 5294 5296 5298 5300 5301 5303 5304 5305 5307 5309 5311 5312 5314 5317 5318 5317 5320 5323 5323 5324 5325 5325 5330 5339 5346 5349 5357 5368
5313 5310 5307 5305 5303 5300 5298 5297 5297 5297 5297 5296 5296 5295 5295 5293 5292 5291 5291 5290 5288 5287 5285 5284 5283 5282 5282 5282 5282 5283 5284 5284 5286 5287 5288 5289 5291 5293 5294 5296 5297 5298 5298 5300 5302 5303 5304 5306 5306 5306 5306 5308 5310 5311 5312 5313 5314 5319 5327 5333 5337 5344 5356
5309 5305 5303 5300 5298 5295 5293 5291 5291 5292 5292 5291 5290 5290 5291 5290 5289 5288 5287 5286 5286 5284 5283 5282 5281 5280 5280 5279 5279 5279 5279 5280 5281 5281 5283 5284 5285 5287 5288 5289 5290 5291 5292 5293 5295 5296 5297 5296 5296 5296 5296 5296 5297 5299 5301 5303 5305 5309 5315 5321 5325 5331 5343
5305 5301 5298 5296 5293 5290 5287 5285 5285 5286 5286 5285 5285 5285 5285 5286 5286 5285 5283 5282 5282 5282 5281 5279 5278 5277 5277 5276 5276 5276 5275 5275 5276 5276 5277 5278 5279 5280 5281 5282 5284 5285 5286 5287 5288 5290 5290 5288 5287 5287 5286 5286 5288 5290 5292 5294 5295 5298 5302 5307 5311 5317 5327
5300 5297 5294 5292 5289 5285 5282 5279 5279 5280 5279 5279 5279 5279 5280 5281 5281 5281 5279 5278 5278 5278 5277 5276 5276 5275 5274 5273 5273 5272 5272 5272 5271 5271 5272 5272 5273 5274 5275 5276 5277 5278 5280 5282 5283 5284 5283 5281 5281 5281 5280 5279 5280 5282 5283 5283 5284 5287 5290 5294 5299 5305 5313
5295 5293 5290 5287 5284 5281 5277 5274 5274 5273 5273 5273 5272 5273 5274 5275 5276 5275 5275 5274 5273 5273 5273 5272 5272 5271 5270 5269 5269 5268 5268 5268 5267 5267 5267 5267 5266 5267 5269 5270 5271 5272 5274 5276 5277 5278 5278 5276 5276 5276 5275 5274 5274 5275 5275 5275 5276 5278 5281 5283 5288 5294 5300
5291 5288 5285 5283 5280 5277 5273 5270 5268 5268 5267 5266 5266 5266 5268 5270 5270 5269 5269 5269 5268 5269 5268 5268 5268 5267 5266 5265 5264 5264 5264 5263 5263 5263 5262 5261 5260 5261 5263 5263 5264 5266 5268 5270 5271 5272 5273 5272 5271 5271 5271 5270 5270 5270 5269 5269 5271 5272 5272 5274 5278 5284 5289
5286 5283 5281 5278 5275 5273 5269 5265 5263 5262 5261 5260 5260 5260 5262 5263 5263 5263 5263 5263 5263 5263 5263 5263 5263 5262 5262 5261 5260 5259 5259 5258 5258 5257 5256 5255 5254 5255 5256 5256 5258 5261 5263 5264 5266 5267 5267 5268 5267 5267 5267 5266 5266 5265 5265 5265 5266 5265 5264 5267 5272 5276 5280
5282 5279 5277 5274 5271 5268 5265 5261 5259 5257 5256 5255 5254 5254 5255 5256 5257 5257 5257 5257 5257 5257 5257 5257 5257 5257 5257 5256 5255 5254 5254 5253 5252 5251 5250 5248 5248 5249 5249 5250 5252 5255 5257 5259 5260 5262 5262 5263 5263 5263 5262 5262 5262 5262 5261 5262 5262 5261 5261 5264 5267 5269 5271
5277 5274 5272 5270 5267 5264 5261 5257 5254 5252 5251 5250 5249 5248 5249 5250 5250 5251 5251 5250 5250 5251 5251 5252 5252 5251 5251 5251 5250 5250 5249 5248 5247 5246 5244 5242 5242 5242 5243 5244 5247 5250 5252 5253 5255 5257 5257 5258 5258 5259 5259 5259 5259 5258 5258 5259 5259 5259 5259 5260 5262 5263 5266
5273 5270 5268 5266 5263 5260 5257 5253 5250 5248 5246 5245 5244 5243 5244 5244 5245 5245 5245 5245 5245 5245 5245 5246 5246 5245 5245 5246 5246 5245 5244 5244 5243 5241 5240 5239 5238 5237 5238 5240 5243 5245 5247 5249 5250 5252 5253 5254 5254 5254 5255 5255 5256 5256 5256 5256 5257 5257 5257 5258 5259 5260 5262
5268 5266 5263 5261 5259 5256 5253 5250 5246 5243 5241 5240 5239 5238 5239 5239 5239 5239 5240 5240 5239 5239 5240 5240 5240 5240 5240 5240 5241 5241 5240 5239 5238 5237 5236 5236 5235 5234 5234 5236 5239 5241 5242 5244 5245 5247 5248 5249 5250 5250 5251 5251 5252 5253 5253 5253 5254 5255 5255 5255 5257 5258 5259
5264 5261 5259 5257 5255 5252 5249 5246 5243 5240 5237 5235 5234 5233 5234 5234 5234 5234 5235 5235 5235 5234 5235 5235 5235 5235 5235 5235 5236 5236 5236 5236 5235 5234 5233 5233 5232 5231 5231 5232 5234 5236 5237 5239 5240 5242 5243 5244 5245 5246 5247 5247 5248 5249 5249 5250 5251 5252 5252 5253 5254 5256 5257
5260 5257 5255 5252 5251 5249 5246 5243 5239 5236 5234 5231 5230 5229 5229 5229 5229 5229 5230 5230 5230 5230 5230 5230 5230 5230 5230 5231 5231 5232 5232 5232 5232 5231 5230 5229 5229 5229 5229 5229 5230 5231 5232 5234 5235 5237 5238 5239 5240 5241 5242 5243 5244 5244 5245 5246 5247 5248 5249 5251 5252 5253 5255
5255 5253 5250 5248 5246 5245 5242 5239 5236 5233 5230 5228 5226 5225 5224 5224 5225 5225 5225 5226 5226 5226 5226 5226 5226 5226 5226 5226 5227 5227 5228 5228 5228 5228 5227 5227 5226 5226 5226 5226 5226 5227 5228 5229 5230 5231 5232 5234 5235 5236 5237 5238 5239 5240 5240 5242 5243 5245 5246 5248 5249 5251 5253
5251 5249 5246 5244 5242 5241 5239 5236 5233 5230 5227 5225 5222 5221 5220 5220 5220 5220 5221 5221 5221 5221 5221 5221 5222 5222 5222 5222 5223 5223 5224 5224 5225 5225 5224 5224 5224 5223 5223 5223 5223 5223 5224 5224 5225 5226 5228 5229 5230 5231 5233 5234 5235 5236 5237 5239 5240 5241 5243 5245 5246 5248 5250
5247 5244 5242 5240 5238 5236 5235 5233 5230 5227 5224 5222 5219 5217 5216 5216 5216 5216 5217 5217 5217 5217 5217 5217 5218 5218 5218 5218 5219 5219 5220 5220 5221 5221 5221 5221 5221 5221 5220 5220 5220 5220 5221 5221 5221 5222 5223 5224 5226 5227 5229 5230 5232 5233 5234 5235 5237 5238 5240 5241 5243 5245 5247
5242 5240 5238 5236 5234 5232 5231 5229 5227 5224 5221 5218 5216 5214 5212 5212 5212 5212 5213 5213 5212 5213 5213 5214 5214 5214 5214 5214 5214 5215 5216 5217 5217 5218 5218 5218 5218 5218 5218 5218 5218 5218 5218 5218 5218 5219 5219 5220 5222 5224 5225 5227 5228 5230 5231 5232 5233 5235 5236 5238 5239 5241 5244
5238 5236 5234 5232 5230 5228 5226 5225 5223 5221 5219 5216 5213 5211 5209 5208 5207 5208 5208 5208 5208 5209 5209 5210 5210 5210 5210 5210 5210 5211 5212 5212 5213 5214 5215 5215 5215 5216 5215 5215 5215 5215 5215 5216 5216 5216 5216 5217 5219 5220 5221 5223 5225 5226 5227 5228 5229 5231 5233 5234 5236 5238 5241
5234 5232 5229 5227 5226 5224 5222 5221 5219 5218 5216 5213 5210 5208 5206 5204 5204 5203 5203 5203 5204 5205 5205 5205 5205 5205 5205 5206 5206 5207 5207 5208 5209 5210 5211 5212 5212 5213 5213 5213 5213 5213 5213 5213 5213 5214 5214 5215 5215 5217 5218 5219 5221 5222 5223 5224 5226 5227 5229 5230 5232 5234 5237
5230 5228 5226 5223 5222 5220 5219 5217 5215 5214 5212 5210 5208 5205 5203 5202 5200 5199 5199 5199 5200 5201 5201 5201 5201 5201 5201 5201 5202 5202 5203 5204 5205 5206 5207 5208 5209 5209 5210 5210 5210 5210 5211 5211 5211 5211 5212 5212 5213 5213 5215 5216 5217 5218 5219 5220 5222 5223 5225 5227 5228 5231 5233
5225 5224 5222 5220 5218 5216 5215 5213 5212 5210 5208 5207 5205 5202 5200 5198 5197 5195 5194 5195 5196 5196 5196 5197 5197 5197 5197 5197 5197 5198 5199 5199 5200 5202 5203 5204 5205 5206 5206 5207 5207 5208 5208 5208 5209 5209 5209 5210 5210 5211 5212 5212 5213 5214 5215 5216 5218 5219 5221 5223 5224 5226 5228
5221 5219 5218 5216 5214 5213 5211 5209 5208 5207 5205 5203 5201 5199 5197 5195 5193 5191 5191 5191 5191 5191 5192 5192 5192 5192 5192 5193 5193 5194 5194 5195 5196 5197 5199 5200 5201 5202 5203 5203 5204 5205 5205 5206 5206 5206 5207 5207 5207 5208 5209 5209 5210 5211 5212 5213 5214 5216 5217 5218 5220 5222 5224
5217 5215 5214 5212 5211 5209 5208 5206 5205 5203 5202 5200 5198 5196 5194 5192 5190 5188 5187 5187 5187 5187 5187 5187 5188 5188 5188 5188 5189 5189 5190 5191 5191 5192 5194 5195 5197 5198 5199 5200 5200 5201 5202 5202 5203 5203 5204 5204 5205 5205 5206 5207 5207 5208 5209 5210 5211 5212 5213 5214 5216 5218 5219
5213 5211 5210 5208 5207 5205 5204 5203 5201 5200 5198 5197 5195 5193 5191 5189 5187 5185 5184 5183 5182 5182 5183 5183 5183 5183 5184 5184 5185 5185 5186 5187 5187 5188 5189 5191 5193 5194 5195 5196 5197 5197 5198 5199 5200 5200 5201 5201 5202 5202 5203 5204 5204 5205 5206 5207 5208 5209 5210 5211 5212 5213 5215
5209 5207 5206 5205 5203 5202 5200 5199 5198 5196 5195 5194 5192 5191 5189 5187 5185 5182 5181 5180 5179 5179 5179 5179 5179 5179 5180 5180 5181 5181 5182 5183 5184 5184 5186 5187 5188 5190 5191 5192 5193 5194 5194 5195 5196 5197 5198 5198 5199 5200 5200 5201 5201 5202 5202 5203 5204 5205 5206 5207 5208 5210 5211